Fort Lauderdale, FL

12:52 AM EST on December 13, 2019 (GMT -0500)
Fort Lauderdale Executive

Weather History for KFXE - October, 2019

Change the Weather History Date:

Wednesday, October 30, 2019

  Actual Average Record
Temperature  
Mean Temperature 84 °F -  
Max Temperature 88 °F 84 °F 93 °F (2002)
Min Temperature 79 °F 69 °F 51 °F (1968)
Cooling Degree Days 19    
Growing Degree Days 34 (Base 50)    
Moisture  
Dew Point 73 °F    
Average Humidity 75    
Maximum Humidity 82    
Minimum Humidity 57    
Precipitation  
Precipitation 0.01 in - - ()
Sea Level Pressure  
Sea Level Pressure 30.03 in    
Wind  
Wind Speed 10 mph ()    
Max Wind Speed 16 mph    
Max Gust Speed 22 mph    
Visibility 10.0 miles    
Events      
Averages and records for this station are not official NWS values.
T = Trace of Precipitation, MM = Missing Value Source: Averaged Metar Reports

Daily Weather History Graph

Daily Weather History Graph

Search for Another Location

Airport or City:

Astronomy

Oct. 30, 2019 Rise Set
Actual Time 7:28 AM EDT 6:40 PM EDT
Civil Twilight 7:04 AM EDT 7:03 PM EDT
Nautical Twilight 6:37 AM EDT 7:31 PM EDT
Astronomical Twilight 6:10 AM EDT 7:58 PM EDT
Moon 9:58 AM EDT (10/30) 8:59 PM EDT (10/30)
Length of Visible Light 11h 59m
Length of Day
11h 11m
Waxing Crescent, 8% of the Moon is Illuminated
Oct 30
Waxing Crescent
Nov 4
First Quarter
Nov 12
Full
Nov 19
Last Quarter
Nov 26
New

Hourly Weather History & Observations

Time (EDT) Temp. Heat Index Dew Point Humidity Pressure Visibility Wind Dir Wind Speed Gust Speed Precip Events Conditions
12:53 AM 81.0 °F 86.2 °F 73.9 °F 79% 30.05 in 10.0 mi East 11.5 mph - N/A   Scattered Clouds
1:53 AM 81.0 °F 86.2 °F 73.9 °F 79% 30.04 in 10.0 mi East 13.8 mph - N/A   Scattered Clouds
2:53 AM 81.0 °F 85.8 °F 73.0 °F 77% 30.02 in 10.0 mi ENE 10.4 mph - N/A   Scattered Clouds
3:53 AM 80.1 °F 84.2 °F 73.0 °F 79% 30.01 in 10.0 mi East 9.2 mph - N/A   Partly Cloudy
4:53 AM 80.1 °F 84.5 °F 73.9 °F 81% 30.01 in 10.0 mi East 9.2 mph - N/A   Scattered Clouds
5:53 AM 80.1 °F 84.5 °F 73.9 °F 81% 30.02 in 10.0 mi East 9.2 mph - N/A   Partly Cloudy
6:53 AM 80.1 °F 84.2 °F 73.0 °F 79% 30.03 in 10.0 mi East 9.2 mph - N/A   Partly Cloudy
7:53 AM 81.0 °F 85.8 °F 73.0 °F 77% 30.04 in 10.0 mi East 10.4 mph - N/A   Partly Cloudy
8:53 AM 82.0 °F 87.4 °F 73.0 °F 74% 30.06 in 10.0 mi ESE 11.5 mph - 0.00 in   Partly Cloudy
9:53 AM 84.9 °F 92.1 °F 73.9 °F 69% 30.07 in 10.0 mi East 16.1 mph - N/A   Scattered Clouds
10:53 AM 84.9 °F 91.4 °F 73.0 °F 67% 30.08 in 10.0 mi ESE 11.5 mph - N/A   Scattered Clouds
11:53 AM 84.9 °F 92.1 °F 73.9 °F 69% 30.07 in 10.0 mi East 16.1 mph - N/A   Scattered Clouds
12:53 PM 86.0 °F 93.8 °F 73.9 °F 67% 30.05 in 10.0 mi East 12.7 mph 21.9 mph N/A   Scattered Clouds
1:53 PM 84.9 °F 91.4 °F 73.0 °F 67% 30.02 in 10.0 mi East 12.7 mph - N/A   Scattered Clouds
2:53 PM 88.0 °F 93.8 °F 71.1 °F 57% 30.01 in 10.0 mi East 13.8 mph - N/A   Scattered Clouds
3:53 PM 87.1 °F 95.4 °F 73.9 °F 65% 30.00 in 10.0 mi ESE 11.5 mph - N/A   Scattered Clouds
4:53 PM 84.0 °F 90.2 °F 73.0 °F 69% 30.00 in 10.0 mi East 10.4 mph - N/A   Scattered Clouds
5:53 PM 82.0 °F 89.4 °F 75.9 °F 82% 30.00 in 10.0 mi East 9.2 mph - 0.01 in   Scattered Clouds
6:53 PM 81.0 °F 86.2 °F 73.9 °F 79% 30.01 in 10.0 mi East 8.1 mph - N/A   Partly Cloudy
7:53 PM 80.1 °F 84.5 °F 73.9 °F 81% 30.02 in 10.0 mi East 8.1 mph - N/A   Partly Cloudy
8:53 PM 80.1 °F 84.5 °F 73.9 °F 81% 30.03 in 10.0 mi East 8.1 mph - N/A   Partly Cloudy
9:53 PM 80.1 °F 84.2 °F 73.0 °F 79% 30.04 in 10.0 mi East 8.1 mph - N/A   Clear
10:53 PM 80.1 °F 84.2 °F 73.0 °F 79% 30.05 in 10.0 mi East 8.1 mph - N/A   Scattered Clouds
11:53 PM 79.0 °F - 73.0 °F 82% 30.04 in 10.0 mi East 5.8 mph - N/A   Scattered Clouds